Location: Trento
(46.0670°N, 11.1330°E)
Time: 19:44:52
(UTC+02:00)

ISS - Visible Passes

Search period start: 19 April 2025 00:00
Search period end: 29 April 2025 00:00
Orbit: 414 x 421 km, 51.6° (Epoch: 19 April)

Date Brightness Start Highest point End Pass type
(mag) Time Alt. Az. Time Alt. Az. Time Alt. Az.
19 Apr -1.1 05:18:07 10° SSE 05:19:56 14° SE 05:21:46 10° E visible
21 Apr -2.5 05:17:21 12° SSW 05:20:07 33° SE 05:23:10 10° ENE visible
22 Apr -1.9 04:31:07 19° SSE 04:32:05 21° SE 04:34:42 10° E visible
23 Apr -1.1 03:44:46 13° ESE 03:44:46 13° ESE 03:45:47 10° ESE visible
23 Apr -3.8 05:17:41 15° WSW 05:20:22 81° SSE 05:23:42 10° ENE visible
24 Apr -3.4 04:31:15 37° SSW 04:32:10 51° SE 04:35:26 10° ENE visible
25 Apr -2.2 03:44:45 28° ESE 03:44:45 28° ESE 03:47:01 10° ENE visible
25 Apr -3.2 05:17:39 12° W 05:20:39 51° NNW 05:23:56 10° ENE visible
26 Apr -0.8 02:58:10 11° E 02:58:10 11° E 02:58:24 10° E visible
26 Apr -3.7 04:31:04 35° WSW 04:32:19 72° NNW 04:35:40 10° ENE visible
27 Apr -3.5 03:44:25 63° E 03:44:25 63° E 03:47:19 10° ENE visible
27 Apr -2.4 05:17:51 10° WNW 05:20:57 34° N 05:24:03 10° ENE visible
28 Apr -1.4 02:57:42 20° ENE 02:57:42 20° ENE 02:58:54 10° ENE visible
28 Apr -2.8 04:30:35 20° WNW 04:32:29 41° NNW 04:35:41 10° ENE visible
